Regional Weather Roundup
Issued by NWS State College, PA

Home | Current Version | Previous Version | Text Only | Print | Product List | Glossary On
Versions: 1 2 3 4 5 6 7 8 9 10 11 12 13 14 15 16 17 18 19 20 21 22 23 24 25 26 27 28 29 30 31 32 33 34 35 36 37 38 39 40 41 42 43 44 45 46 47 48 49 50
000
ASUS41 KCTP 020210
RWRCTP

REGIONAL WEATHER ROUNDUP
NATIONAL WEATHER SERVICE STATE COLLEGE PA
1000 PM EDT SAT AUG 01 2015

Note: "fair" indicates few or no clouds below 12,000 feet with no
significant weather and/or obstructions to visibility.

* = STATION THAT DOES NOT REPORT PRECIPITATION /E.G. RAIN...SNOW...ETC/
    THUNDER OR FOG.

PAZ002>004-007>009-013>016-020>023-029>032-020300-
WESTERN PENNSYLVANIA

CITY           SKY/WX    TMP DP  RH WIND       PRES   REMARKS
ERIE           CLEAR     69  60  73 S6        29.89S
MEADVILLE      CLEAR     68  51  54 CALM      29.94R
FRANKLIN*      CLEAR     64  48  55 W3        29.96S
NEW CASTLE     FAIR      63  58  83 CALM      29.95R
BEAVER COUNTY  NOT AVBL
BUTLER*        CLEAR     64  57  77 CALM      29.96R
PITTSBURGH INT PTCLDY    72  55  55 SW3       29.95R
PITTSBURGH     CLEAR     72  49  44 W6        29.95R
INDIANA*       PTCLDY    66  63  88 CALM      29.98S
LATROBE        PTCLDY    70  59  68 CALM      29.96R
WASHINGTON CO* NOT AVBL
$$

PAZ004>006-010>012-017>019-024>028-033>037-041-042-045-046-049>053-020300-
CENTRAL PENNSYLVANIA

CITY           SKY/WX    TMP DP  RH WIND       PRES   REMARKS
BRADFORD       MOCLDY    59  52  77 CALM      29.96R
DUBOIS         CLEAR     65  58  78 SW3       29.95R
CLEARFIELD     CLEAR     66  57  72 CALM      29.95R
JOHNSTOWN      CLOUDY    68  54  60 SW5       29.99R
ALTOONA        CLOUDY    67  61  81 CALM      29.97R
STATE COLLEGE  NOT AVBL
WILLIAMSPORT   CLEAR     67  59  75 N3        29.88R
SELINSGROVE    PTCLDY    65  62  90 CALM      29.91R
FT INDIANTOWN  NOT AVBL
CAPITAL CITY   CLOUDY    76  60  57 SW3       29.89R
HARRISBURG     MOCLDY    77  60  55 NW5       29.89R
YORK           PTCLDY    66  62  87 W3        29.91R
$$

PAZ038>040-043-044-047-048-054-055-060>062-067>071-020300-
EASTERN PENNSYLVANIA

CITY           SKY/WX    TMP DP  RH WIND       PRES   REMARKS
SCRANTON       CLEAR     63  59  87 SE5       29.90R
MOUNT POCONO   PTCLDY    61  56  83 NW3       29.94R
ALLENTOWN      CLOUDY    75  60  59 W3        29.87R
QUAKERTOWN*    PTCLDY    72  59  64 CALM      29.89R
READING        PTCLDY    75  58  55 SW3       29.88R
LANCASTER      CLEAR     72  58  61 W6        29.89R
COATESVILLE    CLEAR     72  59  64 NW7       29.91R
POTTSTOWN      PTCLDY    71  61  70 CALM      29.89R
BLUE BELL      CLEAR     68  63  83 CALM      29.87R
DOYLESTOWN     CLEAR     70  58  65 CALM      29.87R
WILLOW GROVE   NOT AVBL
NORTH PHILA    CLEAR     76  56  49 CALM      29.88R
PHILADELPHIA   PTCLDY    83  59  44 NW8       29.87R
$$



USA.gov is the U.S. government's official web portal to all federal, state and local government web resources and services.